[Date Prev][Date Next][Thread Prev][Thread Next] - [Date Index][Thread Index][Author Index]

2 Line ISS Keps 10-23



ISS
1 25544U 98067A   02296.10405093  .00030048  00000-0  40968-3 0  2922
2 25544  51.6349 130.5685 0015117  62.0164  79.3158 15.57123151223924


----
Via the sarex mailing list at AMSAT.ORG courtesy of AMSAT-NA.
To unsubscribe, send "unsubscribe sarex" to Majordomo@amsat.org



AMSAT Top AMSAT Home